EHI
0 0 1 2 2 1 0 0 0 0 0 0 0 0 0 0 1 1 1 0 0 0 0 0 0 0 0 0 0 0 0 0 0 0 0 0 0 0 0 0 0 1 3
0 0 1 2 2 1 0 0 0 0 0 0 0 0 0 0 0 0 0 0 0 0 0 0 0 0 0 0 0 0 0 0 0 0 0 0 0 0 0 0 0 2 3
0 0 1 2 2 1 0 0 0 1 0 0 0 0 0 0 0 0 0 0 0 0 0 0 0 0 0 0 0 0 0 0 0 0 0 0 0 0 0 0 1 2 3
0 0 0 1 2 1 0 0 0 0 0 0 0 0 0 0 0 0 0 0 0 0 0 0 0 0 0 0 0 0 0 0 0 0 0 0 0 0 0 1 2 3 3
0 0 0 0 1 1 0 0 0 0 0 0 0 0 0 0 0 0 0 0 0 0 0 0 0 0 0 0 0 0 0 0 0 0 0 0 0 0 0 1 2 3 2
0 0 0 0 0 0 0 0 0 0 0 0 0 0 0 0 0 0 0 0 0 0 0 0 0 0 0 0 0 0 0 0 0 0 0 0 0 0 0 1 2 3 3
0 0 0 0 0 0 0 0 0 0 0 0 0 0 0 0 0 0 0 0 0 0 0 0 0 0 0 0 0 0 0 0 0 0 0 0 0 0 0 1 2 3 3
0 0 0 0 0 1 1 0 0 0 0 0 0 0 0 0 0 0 0 0 0 0 0 0 0 0 0 0 0 0 0 0 0 0 0 0 0 0 0 0 1 2 2
0 0 0 0 0 1 1 0 0 0 0 0 0 0 0 0 0 0 0 0 0 0 0 0 0 0 0 0 0 0 0 0 0 0 0 0 1 1 0 0 0 1 1
0 0 0 0 0 1 1 0 0 0 0 0 0 0 0 0 0 0 0 0 0 0 0 0 0 0 0 0 0 0 0 0 0 0 0 1 3 2 1 0 0 0 0
0 0 0 0 0 0 0 0 0 1 0 0 0 0 0 0 0 0 0 0 0 0 0 0 0 0 0 0 0 0 0 0 0 0 0 1 3 3 1 0 0 0 0
0 0 0 0 0 0 0 0 0 0 0 0 0 0 0 0 0 0 0 0 0 0 0 0 0 0 0 0 0 1 1 1 0 0 0 1 2 1 0 0 0 0 0
0 0 0 0 0 0 0 0 0 0 0 0 0 0 0 0 0 0 0 0 0 0 0 0 0 0 0 0 0 1 2 1 0 0 0 1 1 1 1 1 1 0 0
0 0 0 0 0 0 0 0 0 0 0 0 0 0 0 0 0 0 0 0 0 0 0 0 0 0 0 0 0 1 1 0 0 0 1 1 0 1 1 2 1 0 0
0 0 0 0 0 0 0 0 0 0 0 0 0 0 0 0 0 0 0 0 0 0 0 0 0 0 0 0 0 0 0 0 0 0 0 0 0 0 1 2 1 0 1
1 1 1 0 1 1 1 0 0 0 0 0 1 1 0 0 0 0 0 0 0 0 0 0 0 0 0 0 0 0 0 0 0 0 0 0 0 0 0 0 0 0 1
3 3 3 2 2 3 3 2 0 0 1 1 2 1 0 0 0 0 0 0 0 0 0 0 0 0 0 0 0 0 0 0 0 0 0 0 0 0 0 0 0 0 1
7 8 8 6 5 6 6 4 2 1 2 3 2 1 0 0 0 0 1 1 0 0 0 0 0 0 0 0 0 0 0 0 0 0 0 0 0 0 0 1 1 0 0
13 13 13 12 10 9 8 6 4 3 4 4 3 2 1 0 0 0 1 1 0 0 0 0 0 0 0 0 0 0 0 0 0 0 0 0 0 0 0 1 1 1 1
15 17 17 17 16 13 11 10 7 5 4 4 3 3 2 2 2 2 2 2 1 0 0 0 0 0 0 0 1 1 1 0 0 0 0 0 0 0 0 1 1 2 2
20 22 23 22 22 20 17 14 12 9 5 4 4 5 5 4 4 5 5 4 2 1 1 0 0 0 0 1 2 2 1 1 0 0 0 0 0 0 0 1 1 2 2
27 29 29 27 27 26 23 19 16 12 7 4 4 6 8 7 7 7 7 6 4 2 1 0 0 0 0 1 2 3 2 1 1 1 0 0 0 0 0 1 1 1 1
29 31 32 33 33 32 29 25 22 18 12 7 6 7 9 8 8 8 9 7 5 3 1 0 0 0 1 2 3 3 3 3 2 1 0 0 0 1 1 0 1 1 0
25 28 32 35 36 35 34 32 28 23 16 11 9 9 9 8 8 9 10 9 6 3 2 1 1 2 4 4 4 4 4 4 3 1 0 0 0 1 1 1 0 0 0
19 22 29 34 35 35 37 37 32 25 19 15 13 12 11 9 8 8 10 10 7 4 4 4 5 5 6 6 6 5 5 4 3 2 0 0 0 1 1 1 1 0 0
15 19 26 33 35 36 39 40 35 27 21 18 17 15 13 10 8 8 10 10 8 6 5 6 7 7 7 8 7 6 5 4 3 1 0 0 0 0 0 0 1 0 0
Wind_Speed
6 10 11 11 12 13 14 14 14 15 15 14 15 15 15 15 15 16 16 15 15 15 16 15 15 15 15 15 15 15 15 15 15 15 15 14 14 14 13 12 12 12 15
8 11 11 10 12 13 13 13 14 14 14 15 14 14 15 15 15 15 15 15 15 15 15 15 15 14 15 15 15 15 14 15 14 14 15 14 14 13 11 9 9 12 14
9 10 11 11 12 13 13 13 14 14 14 14 14 15 15 15 15 15 14 15 15 15 15 14 14 14 14 14 14 14 14 14 13 13 12 11 13 12 11 12 13 14 13
9 10 11 11 11 12 12 13 13 14 14 14 14 14 14 15 15 14 14 14 15 15 14 13 14 14 14 13 13 13 13 12 11 10 7 9 11 12 12 12 13 13 13
9 10 12 10 11 11 12 12 13 13 13 14 14 14 15 15 14 14 14 14 14 14 13 13 12 13 12 13 12 12 12 10 8 6 8 8 9 12 12 12 13 12 12
10 11 13 9 11 11 12 12 12 13 13 13 14 14 14 15 14 15 14 14 14 13 13 12 12 12 11 11 11 11 11 9 8 8 8 8 9 11 11 12 13 12 12
10 10 13 10 10 11 11 12 12 12 12 13 13 13 14 14 14 14 14 13 12 12 11 11 11 11 10 10 11 10 9 5 5 8 7 8 10 11 11 11 12 12 11
9 10 11 11 10 10 11 11 11 12 13 13 13 13 13 13 13 13 13 12 11 11 11 10 10 9 9 10 10 10 8 5 7 8 8 9 10 10 10 11 11 11 11
8 9 9 10 10 11 11 11 12 12 12 12 13 13 13 13 13 12 12 11 11 10 10 10 9 9 9 9 9 9 6 2 5 6 8 8 10 9 10 10 10 10 10
7 7 8 8 7 8 11 11 11 11 10 11 12 12 11 12 12 10 11 11 10 10 9 9 9 9 9 9 9 8 7 5 6 7 6 9 10 9 9 10 10 9 9
7 6 6 8 6 7 8 10 9 10 9 8 9 8 6 7 9 8 12 10 9 9 8 8 8 8 8 9 8 7 7 3 6 4 6 11 9 9 9 9 9 9 9
7 7 6 6 6 6 6 6 5 6 6 5 6 5 5 5 5 7 10 8 8 8 7 7 6 6 5 6 8 8 3 4 5 5 8 10 8 8 9 8 8 8 8
7 7 7 6 4 4 4 4 3 3 4 5 6 4 4 4 4 4 4 6 5 5 4 6 4 2 3 3 2 3 3 3 3 4 8 9 8 8 8 8 8 8 8
7 7 7 6 5 3 3 3 3 3 3 3 5 3 3 2 2 3 2 3 3 3 2 2 2 3 3 3 3 3 3 2 3 3 7 8 7 8 8 8 8 8 8
7 7 7 5 5 4 3 1 3 3 3 4 3 3 2 3 2 3 2 2 2 2 3 2 2 3 2 3 2 3 3 3 3 3 6 8 7 7 7 8 8 8 9
8 7 7 6 5 4 3 2 2 2 2 2 2 3 2 2 2 2 2 2 2 2 2 1 2 2 1 2 2 2 1 2 3 3 4 7 8 7 7 8 8 8 8
8 8 7 7 6 5 4 3 2 2 2 1 2 2 1 2 2 1 1 1 2 2 2 1 1 1 2 2 3 3 2 1 2 2 2 3 6 8 8 8 8 8 9
8 8 8 7 7 6 4 3 2 1 1 1 1 2 2 1 1 1 1 1 1 1 1 1 1 1 1 1 1 1 2 2 2 3 3 3 3 4 8 9 9 8 9
9 9 9 7 8 7 5 4 3 2 2 2 1 1 2 2 2 2 1 1 1 0 0 0 2 0 1 0 1 2 1 2 2 3 2 3 3 3 4 9 10 8 9
9 9 9 8 7 6 5 4 3 3 3 2 2 1 2 2 3 2 2 1 1 1 1 0 0 0 1 1 1 1 1 1 2 2 3 3 3 4 4 5 7 8 10
10 10 9 9 8 6 5 4 4 4 3 3 3 3 3 3 3 3 2 2 2 1 1 2 1 1 1 1 1 1 2 2 2 2 2 2 3 3 4 4 5 4 6
11 11 10 10 9 8 6 4 3 3 3 2 2 3 4 4 4 4 3 3 2 2 2 2 2 2 1 1 2 2 1 3 3 3 3 3 2 2 3 5 4 5 5
11 11 10 9 9 8 7 5 4 4 4 3 3 3 4 5 5 4 3 3 3 3 2 3 3 3 2 2 2 2 2 0 0 3 2 2 2 2 3 3 5 5 6
11 10 10 10 9 9 9 7 7 5 4 3 3 3 4 4 4 4 4 4 4 3 2 4 2 3 3 3 2 2 3 3 2 1 2 2 3 3 3 3 4 4 5
10 9 9 9 9 9 9 8 8 6 4 3 4 3 4 4 5 5 4 4 4 4 3 3 2 4 3 3 3 2 2 2 4 3 2 1 2 2 2 3 3 3 3
9 9 9 10 9 9 9 9 8 7 5 4 4 4 4 4 4 5 5 4 4 4 4 4 4 5 4 4 4 3 3 3 3 2 3 3 2 2 1 1 2 2 2
Wind_Direction
68 74 70 69 74 76 78 79 80 85 90 93 95 97 99 100 102 105 106 108 109 110 114 114 113 113 113 112 114 114 114 114 114 114 115 115 114 114 117 124 129 113 113
84 84 80 73 78 79 80 82 82 84 89 91 94 98 98 100 101 102 103 106 108 108 111 113 112 112 111 111 112 113 114 115 117 119 120 117 113 115 118 114 101 107 118
90 90 90 76 80 80 82 84 85 85 87 90 93 96 95 97 98 100 100 101 104 107 110 112 112 111 111 111 111 111 113 115 121 131 143 126 118 117 116 111 109 116 118
95 93 84 82 81 79 81 83 85 87 88 89 91 94 93 94 96 97 97 100 103 106 108 110 112 111 111 111 113 113 115 118 130 156 139 118 119 120 122 121 120 121 119
98 95 90 85 83 82 82 84 86 87 89 90 91 93 94 94 94 99 96 99 101 103 105 108 112 114 114 115 116 116 118 125 149 153 107 112 113 123 126 125 124 123 122
107 99 94 88 86 85 86 85 87 88 88 91 93 95 95 94 94 96 96 97 98 101 102 104 108 114 117 117 117 120 124 145 170 113 115 118 114 124 127 128 126 125 126
105 102 101 94 91 87 85 83 86 89 89 92 93 94 93 92 92 94 95 96 96 97 99 101 107 112 117 121 122 124 131 161 120 109 112 107 106 122 129 130 129 129 128
107 105 107 106 96 92 88 84 85 86 90 93 93 94 95 96 94 95 97 97 96 97 97 99 105 114 118 124 126 128 141 178 125 118 117 111 111 126 129 130 131 133 133
107 107 110 114 112 106 95 88 86 87 87 92 94 95 97 96 95 94 95 95 96 97 96 94 99 109 114 121 126 128 135 198 131 119 117 112 122 129 131 132 135 138 139
111 109 109 102 105 111 108 98 95 94 91 95 97 97 102 107 106 107 104 92 94 95 94 93 94 102 109 120 128 134 153 199 122 125 118 116 132 138 138 140 142 143 142
121 114 112 110 111 105 101 109 115 111 104 115 109 111 136 115 109 115 87 92 94 95 93 92 96 109 122 129 132 151 186 149 115 106 102 116 142 146 144 146 148 147 147
137 132 122 111 112 108 103 110 110 109 110 102 97 106 100 88 85 90 105 101 100 102 107 99 110 146 173 137 144 180 172 127 125 118 110 132 149 154 154 155 155 156 154
146 142 130 120 109 107 110 109 97 102 106 107 101 103 96 111 113 110 120 129 128 140 127 132 167 139 111 106 137 141 121 128 117 119 122 146 159 163 164 167 166 165 161
152 145 135 135 130 111 95 108 120 117 116 108 112 117 110 95 92 92 92 96 115 110 91 92 89 84 92 117 115 111 129 132 120 114 124 151 166 173 176 176 176 174 170
160 157 147 150 142 140 130 137 117 109 109 109 111 108 104 113 101 99 89 76 76 91 129 117 93 93 107 121 117 114 112 120 128 139 131 154 171 180 183 184 184 183 181
170 163 159 164 153 155 158 152 133 128 125 115 113 105 109 102 95 107 123 105 95 81 57 64 97 113 103 103 112 98 115 129 133 145 143 157 174 184 194 195 194 193 192
171 164 170 172 167 173 179 185 172 159 152 135 124 130 139 120 110 124 123 141 96 91 105 109 93 128 143 131 124 128 132 144 136 147 162 170 169 182 196 201 201 201 197
174 173 180 182 176 182 190 209 206 184 157 166 169 148 149 132 138 176 155 125 112 141 128 122 139 103 81 90 112 118 133 150 166 177 183 192 190 178 182 194 200 203 201
181 180 184 190 187 189 191 199 208 197 216 212 193 179 163 185 197 220 211 72 221 142 325 322 87 9 95 122 173 171 175 172 175 188 191 197 192 203 187 171 188 197 202
186 186 190 193 194 193 194 198 210 211 211 210 205 195 210 211 211 236 200 209 254 191 214 31 54 254 266 253 274 107 212 176 191 180 209 191 190 206 203 185 184 190 199
190 191 195 199 192 196 200 206 203 201 206 207 208 201 213 222 211 229 253 196 247 243 265 236 239 210 225 270 255 201 182 185 193 191 212 209 194 205 208 202 211 201 188
195 196 197 199 197 202 200 207 217 218 217 212 224 206 222 222 223 216 226 229 223 241 242 251 240 267 264 252 280 260 220 177 190 194 195 211 213 204 207 205 207 214 227
198 199 200 199 197 205 204 203 201 202 221 209 212 209 220 225 227 238 229 238 242 251 240 251 245 244 251 242 269 293 290 320 165 162 187 205 217 229 227 212 215 215 221
199 196 197 194 197 201 203 210 211 215 218 216 223 207 212 221 229 228 231 230 239 249 242 241 214 247 249 252 221 245 292 325 293 235 197 193 208 225 239 242 230 214 219
194 195 195 195 201 203 207 209 216 224 223 218 223 210 227 218 226 232 225 227 231 244 250 264 252 256 252 255 262 250 242 235 246 268 272 263 250 236 228 238 242 230 216
188 192 196 195 201 203 205 208 214 222 225 227 227 225 223 218 223 227 228 225 233 243 243 246 246 243 260 266 267 265 261 257 259 259 260 258 261 261 242 241 248 238 220